Bellmunt





Hora UTC 22:25
Temperatura 2.7 ºC
Humitat 93.0 %
Pressió 1016.3 hPa
Pluja 3.0 mm
Velocitat vent 4.8 km/h
Direcció vent ENE

Dades diàries 2020-03-31



Hora UTC (hivern +1h; estiu +2h)
Temperatura (ºC) Humitat (%) Pressió (hPa) Velocitat vent (km/h) Precipitació (mm)
Hora UTC Aire Humitat Pressió Vel. Dir. Vel. Max Dir. Intent. màx 5 min.
00:05 2.9 90.0 1014.2 17.7 SSE 19.3 0.0
00:10 2.9 90.0 1014.4 9.7 S 17.7 0.0
00:15 2.9 90.0 1014.4 8.0 SE 14.5 0.0
00:20 2.9 90.0 1014.4 6.4 ESE 12.9 0.0
00:25 2.8 89.0 1014.4 8.0 SE 16.1 0.0
00:30 2.8 89.0 1014.4 11.3 SE 16.1 0.0
00:35 2.8 90.0 1014.4 11.3 SE 19.3 0.0
00:40 2.7 91.0 1014.4 6.4 SE 17.7 0.0
00:45 2.7 91.0 1014.4 9.7 ESE 16.1 0.0
00:50 2.7 92.0 1014.4 3.2 ESE 16.1 0.0
00:55 2.7 92.0 1014.3 11.3 ESE 16.1 0.0
01:00 2.6 92.0 1014.3 3.2 ESE 16.1 0.0
01:05 2.7 92.0 1014.2 11.3 E 14.5 0.0
01:10 2.6 92.0 1014.2 4.8 E 14.5 0.0
01:15 2.6 92.0 1014.2 9.7 ESE 12.9 0.0
01:20 2.4 92.0 1014.2 6.4 E 12.9 0.0
01:25 2.5 93.0 1014.1 6.4 E 11.3 0.0
01:30 2.5 92.0 1014.1 11.3 ESE 14.5 0.0
01:35 2.5 93.0 1014.0 9.7 E 14.5 0.0
01:40 2.6 93.0 1014.0 8.0 E 11.3 0.0
01:45 2.6 93.0 1013.9 11.3 E 12.9 0.0
01:50 2.6 93.0 1013.9 8.0 E 12.9 0.0
01:55 2.7 93.0 1013.8 9.7 E 11.3 0.0
02:00 2.6 93.0 1013.7 4.8 E 11.3 0.0
02:05 2.4 93.0 1013.7 9.7 E 11.3 0.0
02:10 2.6 94.0 1013.7 3.2 SE 11.3 0.0
02:15 2.7 94.0 1013.7 9.7 ESE 11.3 0.0
02:20 2.6 94.0 1013.8 6.4 ESE 11.3 0.0
02:25 2.5 93.0 1013.7 4.8 ESE 11.3 0.0
02:30 2.6 94.0 1013.7 0.0 E 9.7 0.0
02:35 2.6 94.0 1013.7 0.0 E 4.8 0.0
02:40 2.7 94.0 1013.7 0.0 E 0.0 0.0
02:45 2.8 94.0 1013.7 0.0 SE 1.6 0.0
02:50 2.6 94.0 1013.8 0.0 SE 1.6 0.0
02:55 2.3 94.0 1013.8 0.0 SE 1.6 0.0
03:00 2.2 94.0 1013.8 0.0 SE 0.0 0.0
03:05 2.5 94.0 1013.7 0.0 ESE 0.0 0.0
03:10 2.6 94.0 1013.8 6.4 SSE 12.9 0.0
03:15 2.6 94.0 1013.6 0.0 SE 12.9 0.0
03:20 2.6 94.0 1013.6 1.6 ESE 4.8 0.0
03:25 2.7 94.0 1013.6 3.2 E 9.7 0.0
03:30 2.6 94.0 1013.6 4.8 E 9.7 0.0
03:35 2.2 94.0 1013.5 4.8 E 9.7 0.0
03:40 2.4 94.0 1013.5 3.2 E 9.7 0.0
03:45 2.5 94.0 1013.5 0.0 ESE 9.7 0.0
03:50 2.6 94.0 1013.5 0.0 ESE 4.8 0.0
03:55 2.4 94.0 1013.6 1.6 E 6.4 0.0
04:00 2.3 94.0 1013.7 3.2 E 6.4 0.0
04:05 2.3 94.0 1013.7 1.6 ESE 6.4 0.0
04:10 2.2 94.0 1013.8 1.6 ESE 6.4 0.0
04:15 2.1 94.0 1013.8 3.2 ESE 4.8 0.0
04:20 2.1 94.0 1013.8 0.0 ESE 4.8 0.0
04:25 2.1 94.0 1013.8 0.0 ESE 3.2 0.0
04:30 2.2 94.0 1013.9 0.0 ESE 1.6 0.0
04:35 2.1 94.0 1013.9 3.2 SE 6.4 0.0
04:40 2.1 94.0 1014.0 4.8 ESE 6.4 0.0
04:45 2.1 95.0 1013.9 14.5 ESE 17.7 0.0
04:50 2.1 94.0 1013.8 17.7 ESE 20.9 0.0
04:55 2.2 95.0 1013.7 17.7 E 20.9 0.0
05:00 2.2 95.0 1013.6 14.5 E 20.9 0.0
05:05 2.3 95.0 1013.6 17.7 ESE 20.9 0.0
05:10 2.4 95.0 1013.6 14.5 ESE 20.9 0.0
05:15 2.6 95.0 1013.6 9.7 ESE 17.7 0.0
05:20 2.7 95.0 1013.6 8.0 ESE 16.1 0.0
05:25 2.7 95.0 1013.5 1.6 ESE 11.3 0.0
05:30 2.6 95.0 1013.5 1.6 ESE 16.1 0.0
05:35 2.6 95.0 1013.7 1.6 SE 12.9 0.0
05:40 2.5 95.0 1013.9 17.7 ESE 19.3 0.0
05:45 2.5 95.0 1013.9 16.1 SE 19.3 0.0
05:50 2.6 95.0 1014.2 9.7 S 17.7 0.0
05:55 2.5 95.0 1014.3 19.3 NW 19.3 0.0
06:00 2.6 95.0 1014.4 20.9 S 27.4 0.0
06:05 2.6 95.0 1014.5 9.7 SSW 27.4 0.0
06:10 2.6 95.0 1014.6 3.2 SE 24.1 0.0
06:15 2.7 95.0 1014.7 8.0 SE 16.1 0.0
06:20 2.7 95.0 1014.7 3.2 S 12.9 0.0
06:25 2.7 95.0 1014.8 3.2 S 12.9 0.0
06:30 2.7 94.0 1014.8 14.5 SSE 19.3 0.0
06:35 2.7 94.0 1014.9 8.0 SSW 19.3 0.0
06:40 2.6 94.0 1014.9 3.2 ESE 19.3 0.0
06:45 2.5 94.0 1014.8 11.3 ESE 14.5 0.0
06:50 2.6 94.0 1014.8 1.6 ESE 14.5 0.0
06:55 2.8 94.0 1014.8 11.3 SE 14.5 0.0
07:00 2.8 94.0 1014.8 6.4 E 14.5 0.0
07:05 2.8 94.0 1014.7 12.9 ESE 12.9 0.0
07:10 2.9 94.0 1014.6 14.5 E 16.1 0.0
07:15 3.1 94.0 1014.6 14.5 E 17.7 0.0
07:20 3.1 94.0 1014.6 11.3 E 17.7 0.0
07:25 3.1 94.0 1014.6 0.0 ESE 16.1 0.0
07:30 3.1 93.0 1014.7 12.9 ESE 14.5 0.0
07:35 3.2 93.0 1014.7 11.3 E 14.5 0.0
07:40 3.3 93.0 1014.8 12.9 ESE 12.9 0.0
07:45 3.4 93.0 1014.8 4.8 ESE 12.9 0.0
07:50 3.5 93.0 1014.9 4.8 ESE 9.7 0.0
07:55 3.7 93.0 1014.9 6.4 ESE 9.7 0.0
08:00 3.9 93.0 1014.9 4.8 SE 12.9 0.0
08:05 4.1 93.0 1014.9 1.6 SE 12.9 0.0
08:10 4.2 93.0 1014.9 6.4 SSE 11.3 0.0
08:15 4.2 93.0 1015.1 1.6 S 8.0 0.0
08:20 4.3 93.0 1015.1 4.8 SE 8.0 0.0
08:25 4.3 93.0 1015.1 4.8 SE 6.4 0.0
08:30 3.9 93.0 1015.0 1.6 SSW 8.0 0.0
08:35 4.1 93.0 1015.0 6.4 SE 14.5 0.0
08:40 4.1 93.0 1015.1 0.0 SE 19.3 0.0
08:45 4.1 93.0 1015.1 8.0 SSW 19.3 0.0
08:50 4.3 93.0 1015.1 11.3 SSE 22.5 0.0
08:55 4.8 93.0 1015.1 8.0 SE 22.5 0.0
09:00 4.7 91.0 1015.2 16.1 SE 19.3 0.0
09:05 4.7 92.0 1015.2 1.6 S 17.7 0.0
09:10 4.3 92.0 1015.2 1.6 SSW 17.7 0.0
09:15 4.3 92.0 1015.2 9.7 SSE 17.7 0.0
09:20 4.4 93.0 1015.2 9.7 SE 19.3 0.0
09:25 4.4 92.0 1015.2 11.3 SSE 19.3 0.0
09:30 4.3 91.0 1015.3 16.1 S 19.3 0.0
09:35 4.4 91.0 1015.3 11.3 S 17.7 0.0
09:40 4.2 91.0 1015.3 11.3 SE 17.7 0.0
09:45 4.2 90.0 1015.2 14.5 SSE 19.3 0.0
09:50 4.2 90.0 1015.3 17.7 S 19.3 0.0
09:55 4.0 89.0 1015.3 4.8 ESE 19.3 0.0
10:00 4.1 89.0 1015.2 6.4 ESE 17.7 0.0
10:05 4.1 88.0 1015.3 12.9 SE 16.1 0.0
10:10 4.2 89.0 1015.3 1.6 ESE 19.3 0.0
10:15 4.2 88.0 1015.3 11.3 SSE 19.3 0.0
10:20 4.2 88.0 1015.3 11.3 S 16.1 0.0
10:25 4.3 88.0 1015.3 11.3 S 16.1 0.0
10:30 4.1 88.0 1015.3 1.6 SSE 20.9 0.0
10:35 4.1 89.0 1015.4 0.0 S 20.9 0.0
10:40 3.9 89.0 1015.4 4.8 S 16.1 0.0
10:45 3.9 89.0 1015.4 3.2 S 16.1 0.0
10:50 3.8 90.0 1015.4 8.0 S 14.5 0.0
10:55 4.0 88.0 1015.4 11.3 ESE 16.1 0.0
11:00 4.3 86.0 1015.3 1.6 E 16.1 0.0
11:05 4.5 86.0 1015.4 6.4 E 14.5 0.0
11:10 4.7 87.0 1015.3 0.0 E 11.3 0.0
11:15 4.8 87.0 1015.3 6.4 NE 8.0 0.0
11:20 4.8 87.0 1015.3 3.2 ESE 11.3 0.0
11:25 4.8 87.0 1015.3 0.0 ESE 11.3 0.0
11:30 5.0 86.0 1015.2 11.3 E 11.3 0.0
11:35 5.2 85.0 1015.3 1.6 SE 11.3 0.0
11:40 5.3 83.0 1015.3 9.7 ESE 12.9 0.0
11:45 5.4 83.0 1015.3 9.7 ESE 12.9 0.0
11:50 5.5 81.0 1015.3 4.8 ESE 12.9 0.0
11:55 5.7 82.0 1015.2 6.4 ESE 9.7 0.0
12:00 5.8 81.0 1015.2 1.6 ESE 9.7 0.0
12:05 6.1 82.0 1015.1 3.2 ENE 9.7 0.0
12:10 6.2 80.0 1015.0 12.9 ESE 14.5 0.0
12:15 6.3 79.0 1015.1 1.6 SE 16.1 0.0
12:20 6.4 79.0 1015.1 8.0 SE 16.1 0.0
12:25 6.5 79.0 1015.1 11.3 ESE 16.1 0.0
12:30 6.5 82.0 1015.0 0.0 SSW 16.1 0.0
12:35 6.3 83.0 1015.2 4.8 SSW 11.3 0.0
12:40 6.0 84.0 1015.2 0.0 SSW 11.3 0.0
12:45 5.9 85.0 1015.2 11.3 SSW 12.9 0.0
12:50 5.7 84.0 1015.2 1.6 S 12.9 0.0
12:55 5.6 85.0 1015.2 9.7 S 11.3 0.0
13:00 5.4 85.0 1015.1 9.7 S 11.3 0.0
13:05 5.4 88.0 1015.1 6.4 S 12.9 0.0
13:10 5.4 82.0 1015.1 9.7 ESE 17.7 0.0
13:15 5.6 82.0 1015.1 11.3 SSE 17.7 0.0
13:20 5.4 86.0 1015.1 4.8 ESE 16.1 0.0
13:25 5.4 84.0 1015.1 1.6 ESE 16.1 0.0
13:30 5.5 83.0 1015.1 0.0 E 12.9 0.0
13:35 5.6 84.0 1015.1 4.8 E 9.7 0.0
13:40 5.7 84.0 1015.1 0.0 E 6.4 0.0
13:45 5.7 84.0 1015.1 0.0 E 6.4 0.0
13:50 5.7 82.0 1015.1 0.0 ESE 0.0 0.0
13:55 5.7 83.0 1015.0 0.0 ENE 0.0 0.0
14:00 5.6 83.0 1015.0 0.0 E 12.9 0.0
14:05 5.6 82.0 1014.9 0.0 ENE 14.5 0.0
14:10 5.6 81.0 1014.9 9.7 ESE 14.5 0.0
14:15 5.6 81.0 1014.8 12.9 E 14.5 0.0
14:20 5.4 82.0 1014.9 0.0 ESE 16.1 0.0
14:25 5.4 82.0 1014.8 0.0 SSW 16.1 0.0
14:30 5.2 82.0 1014.8 6.4 N 16.1 0.0
14:35 5.1 81.0 1014.8 3.2 NNE 24.1 0.0
14:40 5.1 81.0 1014.7 6.4 E 24.1 0.0
14:45 5.0 81.0 1014.7 12.9 E 20.9 0.0
14:50 4.9 81.0 1014.6 3.2 NW 20.9 0.0
14:55 4.8 82.0 1014.5 17.7 SSE 22.5 0.0
15:00 4.7 82.0 1014.6 8.0 NW 22.5 0.0
15:05 4.6 84.0 1014.4 6.4 ENE 22.5 0.0
15:10 4.5 84.0 1014.3 9.7 E 25.7 0.0
15:15 4.6 83.0 1014.3 1.6 E 25.7 0.0
15:15 4.6 84.0 1014.5 3.2 E 25.7 0.0
15:25 4.6 83.0 1014.4 6.4 ESE 27.4 0.0
15:30 4.3 88.0 1014.4 16.1 S 30.6 0.0
15:35 4.3 87.0 1014.5 9.7 E 16.1 0.0
15:40 4.6 85.0 1014.5 9.7 ESE 29.0 0.0
15:45 4.5 86.0 1014.5 4.8 E 20.9 0.0
15:50 4.4 87.0 1014.6 6.4 SSW 20.9 0.0
15:55 4.3 87.0 1014.4 17.7 ESE 24.1 0.0
16:00 4.2 87.0 1014.5 20.9 E 32.2 0.0
16:05 4.1 88.0 1014.6 6.4 ESE 32.2 0.0
16:10 4.1 89.0 1014.6 11.3 SE 27.4 0.0
16:15 4.1 89.0 1014.6 6.4 ENE 22.5 0.0
16:20 4.1 89.0 1014.7 1.6 W 22.5 0.0
16:25 4.1 89.0 1014.7 12.9 ESE 22.5 0.0
16:30 3.9 90.0 1014.7 9.7 NE 22.5 0.0
16:35 3.9 90.0 1014.7 8.0 ENE 19.3 0.0
16:40 3.9 90.0 1014.7 16.1 E 20.9 0.0
16:45 3.9 90.0 1014.7 11.3 E 20.9 0.0
16:50 3.8 90.0 1014.8 4.8 ENE 17.7 0.0
16:55 3.8 90.0 1014.6 14.5 NE 19.3 0.0
17:00 3.8 90.0 1014.6 17.7 ENE 20.9 0.0
17:05 3.7 90.0 1014.6 19.3 ENE 24.1 0.2
17:10 3.7 91.0 1014.6 9.7 ENE 24.1 0.0
17:15 3.7 91.0 1014.6 17.7 ENE 17.7 0.0
17:20 3.6 91.0 1014.6 8.0 ENE 24.1 0.0
17:20 3.6 91.0 1014.6 3.2 WSW 24.1 0.0
17:30 3.6 92.0 1014.7 12.9 E 25.7 0.0
17:35 3.6 92.0 1014.7 22.5 E 25.7 0.0
17:40 3.6 92.0 1014.8 6.4 ESE 25.7 0.0
17:45 3.5 92.0 1014.7 6.4 ESE 25.7 0.0
17:50 3.4 92.0 1014.8 4.8 NW 32.2 0.0
17:55 3.4 93.0 1014.8 4.8 NNE 32.2 0.2
18:00 3.4 93.0 1014.9 8.0 ENE 27.4 0.0
18:05 3.4 93.0 1014.8 9.7 NE 20.9 0.0
18:10 3.3 93.0 1014.9 11.3 ENE 25.7 0.0
18:15 3.3 93.0 1015.0 4.8 N 25.7 0.2
18:20 3.2 93.0 1015.2 11.3 ESE 29.0 0.0
18:20 3.2 93.0 1015.3 4.8 ESE 29.0 0.0
18:30 3.1 93.0 1015.3 9.7 ESE 24.1 0.0
18:35 2.9 93.0 1015.3 4.8 ENE 24.1 0.0
18:40 2.9 93.0 1015.3 17.7 ESE 24.1 0.0
18:45 2.9 93.0 1015.4 8.0 ENE 20.9 0.2
18:50 2.9 93.0 1015.3 0.0 WSW 22.5 0.0
18:55 2.9 93.0 1015.4 11.3 ENE 14.5 0.0
19:00 2.9 93.0 1015.4 9.7 ESE 25.7 0.2
19:05 2.9 93.0 1015.6 6.4 ESE 25.7 0.0
19:10 2.9 93.0 1015.7 12.9 E 25.7 0.0
19:15 2.9 93.0 1015.7 6.4 E 25.7 0.2
19:20 2.9 93.0 1015.8 22.5 E 24.1 0.0
19:20 2.9 93.0 1015.7 12.9 ESE 24.1 0.0
19:30 3.0 93.0 1015.8 24.1 ESE 30.6 0.2
19:35 3.1 92.0 1015.8 22.5 E 37.0 0.0
19:40 2.9 92.0 1015.8 27.4 E 33.8 0.2
19:45 2.9 92.0 1015.9 4.8 SSE 27.4 0.0
19:50 2.8 92.0 1015.9 4.8 ESE 24.1 0.2
19:55 2.8 93.0 1016.0 14.5 ESE 27.4 0.0
20:00 2.8 93.0 1016.0 4.8 SE 27.4 0.0
20:05 2.8 93.0 1016.1 9.7 ESE 24.1 0.2
20:10 2.8 93.0 1016.2 12.9 ESE 24.1 0.0
20:15 2.8 93.0 1016.1 27.4 E 35.4 0.2
20:20 2.8 92.0 1016.0 20.9 ESE 35.4 0.0
20:20 2.8 92.0 1016.1 17.7 ESE 29.0 0.0
20:30 2.8 92.0 1016.1 16.1 E 32.2 0.2
20:35 2.8 92.0 1016.1 14.5 E 32.2 0.0
20:40 2.8 92.0 1016.1 6.4 ENE 20.9 0.2
20:45 2.8 92.0 1016.2 9.7 ESE 14.5 0.0
20:50 2.8 92.0 1016.3 14.5 ESE 20.9 0.0
20:55 2.8 92.0 1016.3 3.2 E 20.9 0.0
21:00 2.7 92.0 1016.3 4.8 ESE 16.1 0.0
21:05 2.7 92.0 1016.3 1.6 E 12.9 0.0
21:10 2.7 92.0 1016.3 0.0 E 16.1 0.2
21:15 2.8 92.0 1016.5 4.8 ENE 16.1 0.0
21:20 2.7 92.0 1016.3 0.0 SE 12.9 0.0
21:25 2.8 92.0 1016.5 4.8 E 12.9 0.0
21:30 2.8 92.0 1016.4 11.3 ENE 16.1 0.0
21:35 2.8 92.0 1016.3 4.8 E 17.7 0.0
21:40 2.8 92.0 1016.4 9.7 ENE 17.7 0.0
21:45 2.8 92.0 1016.3 11.3 ENE 19.3 0.0
21:50 2.8 92.0 1016.4 0.0 ENE 19.3 0.0
21:50 2.8 92.0 1016.4 8.0 ENE 19.3 0.0
22:00 2.7 93.0 1016.4 4.8 ENE 12.9 0.0
22:05 2.7 93.0 1016.4 0.0 E 12.9 0.0
22:10 2.7 93.0 1016.3 4.8 NE 11.3 0.0
22:15 2.7 93.0 1016.3 0.0 NNW 11.3 0.0
22:20 2.7 93.0 1016.3 1.6 E 19.3 0.0
22:25 2.7 93.0 1016.3 4.8 ENE 19.3 0.2
Màxima 6.6 95.0 1016.5 27.4 E 37.0 0.2
Mínima 2.1 79.0 1013.5
Total 3.0